CW4845 Weather Reports


time (UTC)temp
F
wind
direction
speed
knots
gust
knots
rain 1hr
in
rain 24hr
in
rain mn
in
humidity
%
barometer
mb
20260506224022 64 197 11.3 19.1 0.00 0.00 0.00 83 1006.8
20260506223519 64 182 11.3 16.5 0.00 0.00 0.00 83 1006.9
20260506222952 64 182 11.3 16.5 0.00 0.00 0.00 83 1006.9
20260506222449 64 185 10.4 16.5 0.00 0.00 0.00 83 1006.7
20260506221922 65 176 10.4 16.5 0.00 0.00 0.00 83 1006.7
20260506221424 65 178 10.4 16.5 0.00 0.00 0.00 83 1006.7
20260506220902 65 207 10.4 17.4 0.00 0.00 0.00 83 1006.6
20260506220406 65 165 11.3 17.4 0.00 0.00 0.00 83 1006.6
20260506215843 65 170 11.3 19.1 0.00 0.00 0.00 83 1006.6
20260506215319 65 143 10.4 19.1 0.00 0.00 0.00 83 1006.5
20260506214754 65 195 11.3 15.6 0.00 0.00 0.00 83 1006.5
20260506214237 65 178 11.3 18.2 0.00 0.00 0.00 83 1006.5
20260506213733 65 206 11.3 18.2 0.00 0.00 0.00 83 1006.5
20260506213233 65 180 10.4 18.2 0.00 0.00 0.00 83 1006.5
20260506212715 65 169 10.4 18.2 0.00 0.00 0.00 83 1006.5
20260506212216 65 197 9.6 16.5 0.00 0.00 0.00 83 1006.5
20260506211701 64 173 8.7 16.5 0.00 0.00 0.00 84 1006.5
20260506211158 63 165 7.8 15.6 0.00 0.00 0.00 83 1006.5
20260506210658 62 176 8.7 13.9 0.00 0.00 0.00 83 1006.2
20260506210146 62 145 7.8 15.6 0.00 0.00 0.00 82 1006.2
20260506205912 63 165 10.4 18.2 0.00 0.00 0.00 80 1006.2
20260506205143 66 131 11.3 18.2 0.00 0.00 0.00 83 1006.2
20260506204645 66 184 10.4 17.4 0.00 0.00 0.00 83 1006.2
20260506204134 65 192 11.3 17.4 0.00 0.00 0.00 83 1006.2
20260506203637 65 195 12.2 22.6 0.00 0.00 0.00 83 1006.3
20260506203131 65 153 13.0 22.6 0.00 0.00 0.00 83 1006.3
20260506202632 65 173 13.0 21.7 0.00 0.00 0.00 83 1006.3
20260506202352 65 191 13.0 21.7 0.00 0.00 0.00 83 1006.4
20260506201832 64 197 13.0 19.1 0.00 0.00 0.00 84 1006.4
20260506201114 64 174 13.9 21.7 0.00 0.00 0.00 84 1006.4
20260506200616 64 192 13.9 21.7 0.00 0.00 0.00 84 1006.6
20260506200046 64 223 13.9 21.7 0.00 0.00 0.00 84 1006.6
20260506195546 64 191 13.9 23.5 0.00 0.00 0.00 84 1006.6
20260506195044 64 191 13.9 23.5 0.00 0.00 0.00 84 1006.8
20260506194544 64 176 12.2 21.7 0.00 0.00 0.00 84 1006.8
20260506194302 64 129 12.2 19.1 0.00 0.00 0.00 84 1006.8
20260506193801 64 182 12.2 19.1 0.00 0.00 0.00 84 1007.0
20260506193044 64 191 13.0 20.9 0.00 0.00 0.00 84 1007.0
20260506192540 64 190 13.9 20.9 0.00 0.00 0.00 84 1007.0
20260506192040 64 180 13.0 20.9 0.00 0.00 0.00 84 1007.0
20260506191532 64 174 13.0 17.4 0.00 0.00 0.00 85 1007.0
20260506191034 64 198 13.9 22.6 0.00 0.00 0.00 85 1007.0
20260506190516 63 190 13.9 23.5 0.00 0.00 0.00 86 1007.3
20260506190019 63 189 14.8 23.5 0.00 0.00 0.00 86 1007.3
20260506185517 62 196 14.8 26.9 0.00 0.00 0.00 86 1007.3
20260506185018 62 166 13.9 26.9 0.00 0.00 0.00 85 1007.3
20260506184719 62 170 13.9 23.5 0.00 0.00 0.00 85 1007.3
20260506184211 62 213 13.9 23.5 0.00 0.00 0.00 85 1007.5
20260506183426 63 191 13.9 23.5 0.00 0.00 0.00 85 1007.5
20260506182901 62 195 14.8 24.3 0.00 0.00 0.00 84 1007.5
20260506182348 62 182 14.8 24.3 0.00 0.00 0.00 84 1007.5
20260506181850 62 194 14.8 24.3 0.00 0.00 0.00 84 1007.5
20260506181347 62 183 14.8 23.5 0.00 0.00 0.00 84 1007.5
20260506180845 62 211 15.6 21.7 0.00 0.00 0.00 84 1007.6
20260506180317 63 143 14.8 22.6 0.00 0.00 0.00 84 1007.6
20260506175813 63 189 15.6 26.9 0.00 0.00 0.00 83 1007.6
20260506175309 63 188 16.5 26.9 0.00 0.00 0.00 83 1008.0
20260506174806 63 180 16.5 28.7 0.00 0.00 0.00 83 1008.0
20260506174236 63 178 16.5 28.7 0.00 0.00 0.00 82 1008.0
20260506173712 64 174 16.5 27.8 0.00 0.00 0.00 82 1007.9
20260506173149 64 198 14.8 26.9 0.00 0.00 0.00 82 1007.9
20260506172634 64 185 13.9 26.1 0.00 0.00 0.00 82 1007.9
20260506172134 63 175 13.9 23.5 0.00 0.00 0.00 83 1008.1
20260506171612 63 194 14.8 23.5 0.00 0.00 0.00 84 1008.1
20260506171107 63 197 13.9 23.5 0.00 0.00 0.00 84 1008.1
20260506170557 63 180 13.0 22.6 0.00 0.00 0.00 83 1008.5
20260506170028 63 176 14.8 24.3 0.00 0.00 0.00 83 1008.5
20260506165522 63 188 15.6 24.3 0.00 0.00 0.00 84 1008.5
20260506165020 63 197 14.8 23.5 0.00 0.00 0.00 84 1009.1
20260506164520 63 141 14.8 23.5 0.00 0.00 0.00 84 1009.1
20260506164225 62 195 14.8 23.5 0.00 0.00 0.00 84 1009.1
20260506163507 62 195 13.9 23.5 0.00 0.00 0.00 84 1009.2
20260506163003 62 140 14.8 20.9 0.00 0.00 0.00 84 1009.2
20260506162505 62 182 15.6 27.8 0.00 0.00 0.00 84 1009.2
20260506161951 62 161 16.5 27.8 0.00 0.00 0.00 84 1009.2
20260506161452 62 193 17.4 26.9 0.00 0.00 0.00 84 1009.2
20260506160935 62 173 16.5 27.8 0.00 0.00 0.00 84 1009.3
20260506160430 62 189 14.8 27.8 0.00 0.00 0.00 84 1009.3
20260506155929 62 192 13.9 23.5 0.00 0.00 0.00 83 1009.3
20260506155430 62 176 13.9 24.3 0.00 0.00 0.00 83 1009.4
20260506154930 62 192 14.8 24.3 0.00 0.00 0.00 83 1009.4
20260506154653 62 196 14.8 23.5 0.00 0.00 0.00 83 1009.4
20260506153930 62 191 14.8 22.6 0.00 0.00 0.00 83 1009.6
20260506153403 62 182 14.8 22.6 0.00 0.00 0.00 83 1009.6
20260506152904 62 182 13.9 21.7 0.00 0.00 0.00 83 1009.6
20260506152405 62 187 13.9 26.1 0.00 0.00 0.00 83 1009.6
20260506151847 62 195 14.8 26.9 0.00 0.00 0.00 83 1009.6
20260506151346 63 189 15.6 26.9 0.00 0.00 0.00 83 1009.6
20260506150847 62 182 15.6 26.1 0.00 0.00 0.00 83 1009.6
20260506150548 63 172 15.6 26.1 0.00 0.00 0.00 83 1009.6
20260506145825 63 196 16.5 25.2 0.00 0.00 0.00 83 1009.6
20260506145327 63 174 14.8 25.2 0.00 0.00 0.00 82 1009.6
20260506144812 63 198 16.5 26.9 0.00 0.00 0.00 82 1009.6
20260506144459 63 188 17.4 26.9 0.00 0.00 0.00 82 1009.6
20260506144006 63 179 16.5 28.7 0.00 0.00 0.00 82 1009.7
20260506143244 63 186 15.6 28.7 0.00 0.00 0.00 82 1009.7
20260506142931 63 187 16.5 26.1 0.00 0.00 0.00 83 1009.6
20260506142817 63 161 16.5 25.2 0.00 0.00 0.00 83 1009.7
20260506141656 63 198 15.6 24.3 0.00 0.00 0.00 83 1009.6
20260506141130 63 192 15.6 30.4 0.00 0.00 0.00 82 1009.6
20260506141040 63 200 15.6 30.4 0.00 0.00 0.00 82 1009.6
20260506140321 64 153 14.8 24.3 0.00 0.00 0.00 82 1009.6
20260506135557 64 176 14.8 24.3 0.00 0.00 0.00 82 1009.6
20260506135043 64 189 14.8 23.5 0.00 0.00 0.00 82 1009.8
20260506134544 64 211 13.9 21.7 0.00 0.00 0.00 82 1009.8
20260506134017 64 176 13.9 21.7 0.00 0.00 0.00 82 1010.1
20260506133507 64 164 14.8 24.3 0.00 0.00 0.00 82 1010.1
20260506133007 64 161 13.9 24.3 0.00 0.00 0.00 82 1010.1
20260506132440 64 170 13.0 20.0 0.00 0.00 0.00 82 1010.1
20260506132149 64 182 13.9 22.6 0.00 0.00 0.00 83 1010.1
20260506131424 63 187 13.9 22.6 0.00 0.00 0.00 83 1010.1
20260506130916 63 182 15.6 24.3 0.00 0.00 0.00 83 1010.1
20260506130414 63 190 15.6 24.3 0.00 0.00 0.00 84 1010.1
20260506125855 63 188 14.8 25.2 0.00 0.00 0.00 84 1010.1
20260506125619 62 186 14.8 25.2 0.00 0.00 0.00 85 1009.8
20260506124846 62 204 14.8 23.5 0.00 0.00 0.00 85 1009.8
20260506124346 61 209 14.8 22.6 0.00 0.00 0.00 85 1009.8
20260506123838 61 159 13.9 21.7 0.00 0.00 0.00 85 1010.0
20260506123317 62 193 14.8 25.2 0.00 0.00 0.00 85 1010.0
20260506122816 62 197 14.8 25.2 0.00 0.00 0.00 85 1010.0
20260506122518 61 215 13.0 21.7 0.00 0.00 0.00 85 1010.0
20260506121741 61 195 13.0 21.7 0.00 0.00 0.00 86 1010.0
20260506121202 61 201 13.0 20.9 0.00 0.00 0.00 86 1010.0
20260506120633 61 194 13.0 21.7 0.00 0.00 0.00 86 1010.0
20260506120112 61 202 13.0 20.9 0.00 0.00 0.00 85 1010.0
20260506115818 61 163 13.9 20.9 0.00 0.00 0.00 86 1010.0
20260506115100 61 192 14.8 22.6 0.00 0.00 0.00 86 1010.1
20260506114824 61 204 13.9 22.6 0.00 0.00 0.00 86 1010.1
20260506114101 61 181 13.0 20.9 0.00 0.00 0.00 86 1010.1
20260506113534 61 228 13.0 23.5 0.00 0.00 0.00 87 1010.2
20260506113032 61 203 13.0 23.5 0.00 0.00 0.00 87 1010.2
20260506112531 61 197 12.2 21.7 0.00 0.00 0.00 87 1010.2
20260506112004 61 173 13.0 26.1 0.00 0.00 0.00 87 1010.1
20260506111434 61 169 13.9 26.1 0.00 0.00 0.00 87 1010.1
20260506110932 60 174 13.9 20.0 0.00 0.00 0.00 87 1010.0
20260506110434 60 143 13.0 22.6 0.00 0.00 0.00 87 1010.0
20260506105903 60 155 13.9 22.6 0.00 0.00 0.00 88 1010.0
20260506105351 60 178 13.0 22.6 0.00 0.00 0.00 88 1010.1
20260506104851 60 186 13.0 22.6 0.00 0.00 0.00 88 1010.1
20260506104352 60 172 13.0 21.7 0.00 0.00 0.00 88 1010.1
20260506103846 60 190 13.9 23.5 0.00 0.00 0.00 88 1010.1
20260506103349 60 177 14.8 23.5 0.00 0.00 0.00 88 1010.1
20260506102838 60 187 15.6 26.1 0.00 0.00 0.00 88 1010.1
20260506102337 60 195 15.6 26.1 0.00 0.00 0.00 88 1010.0
20260506101816 60 184 15.6 24.3 0.00 0.00 0.00 88 1010.0
20260506101251 60 206 16.5 24.3 0.00 0.00 0.00 88 1010.0
20260506100724 60 203 16.5 25.2 0.00 0.00 0.00 88 1009.7
20260506100202 60 188 16.5 27.8 0.00 0.00 0.00 88 1009.7
20260506095702 60 197 16.5 24.3 0.00 0.00 0.00 88 1009.7
20260506095420 60 195 15.6 24.3 0.00 0.00 0.00 89 1009.8
20260506094635 59 216 15.6 25.2 0.00 0.00 0.00 88 1009.8
20260506094133 59 194 14.8 25.2 0.00 0.00 0.00 89 1009.8
20260506093605 59 207 14.8 24.3 0.00 0.00 0.00 88 1009.9
20260506093319 59 187 13.9 21.7 0.00 0.00 0.00 89 1009.9
20260506092544 59 182 14.8 21.7 0.00 0.00 0.00 88 1009.9
20260506092214 59 190 15.6 23.5 0.00 0.00 0.00 89 1010.1
20260506092103 59 152 13.9 23.5 0.00 0.00 0.00 88 1010.1
20260506090945 59 195 15.6 24.3 0.00 0.00 0.00 89 1010.1
20260506090442 60 203 14.8 24.3 0.00 0.00 0.00 88 1010.1
20260506085919 60 195 15.6 22.6 0.00 0.00 0.00 88 1010.1
20260506085418 60 178 15.6 23.5 0.00 0.00 0.00 88 1010.1
20260506084908 60 204 15.6 24.3 0.00 0.00 0.00 88 1010.1
20260506084410 60 182 16.5 25.2 0.00 0.00 0.00 88 1010.1
20260506083849 60 172 17.4 25.2 0.00 0.00 0.00 88 1010.2
20260506083346 60 206 17.4 24.3 0.00 0.00 0.00 88 1010.2
20260506082830 60 211 15.6 23.5 0.00 0.00 0.00 88 1010.2
20260506082332 60 193 14.8 20.9 0.00 0.00 0.00 88 1010.2
20260506081817 60 201 14.8 23.5 0.00 0.00 0.00 88 1010.2
20260506081319 60 209 14.8 24.3 0.00 0.00 0.00 88 1010.2
20260506080815 60 235 13.9 24.3 0.00 0.00 0.00 87 1010.1
20260506080315 60 181 13.0 18.2 0.00 0.00 0.00 87 1010.1
20260506073205 60 180 13.0 20.9 0.00 0.00 0.00 87 1010.5
20260506072705 60 198 12.2 20.9 0.00 0.00 0.00 87 1010.5
20260506072206 60 194 13.0 20.9 0.00 0.00 0.00 87 1010.5
20260506071705 60 184 13.9 20.0 0.00 0.00 0.00 87 1010.5
20260506071155 60 206 13.9 20.0 0.00 0.00 0.00 86 1010.5
20260506070904 60 207 13.0 20.0 0.00 0.00 0.00 86 1010.5
20260506070147 60 180 12.2 20.0 0.00 0.00 0.00 86 1010.5
20260506062015 60 174 12.2 19.1 0.00 0.00 0.00 85 1010.4
20260506061505 60 203 12.2 20.0 0.00 0.00 0.00 85 1010.4
20260506061008 61 176 13.0 22.6 0.00 0.00 0.00 85 1010.4
20260506060506 61 173 14.8 23.5 0.00 0.00 0.00 85 1010.6
20260506060219 61 197 13.9 23.5 0.00 0.00 0.00 85 1010.6
20260506051325 61 182 14.8 22.6 0.00 0.00 0.00 85 1010.9
20260506050756 61 181 14.8 22.6 0.00 0.00 0.00 85 1011.0
20260506050254 61 204 16.5 24.3 0.00 0.00 0.00 85 1011.0
20260506044721 61 216 16.5 26.1 0.00 0.00 0.00 84 1011.0
20260506044416 61 188 16.5 26.1 0.00 0.00 0.00 84 1011.0
20260506043652 61 191 17.4 26.1 0.00 0.00 0.00 84 1011.0
20260506043352 61 188 17.4 26.1 0.00 0.00 0.00 84 1011.0
20260506042605 61 201 15.6 25.2 0.00 0.00 0.00 84 1011.0
20260506042103 61 178 15.6 26.1 0.00 0.00 0.00 84 1010.9
20260506041601 61 207 16.5 28.7 0.00 0.00 0.00 84 1010.9
20260506041323 61 192 17.4 28.7 0.00 0.00 0.00 84 1010.9
20260506040536 61 200 16.5 27.8 0.00 0.00 0.00 84 1011.0
20260506040031 61 192 16.5 27.8 0.00 0.00 0.00 84 1011.0
20260506035749 61 193 16.5 25.2 0.00 0.00 0.00 83 1011.0
20260506035007 61 188 16.5 26.9 0.00 0.00 0.00 83 1011.1
20260506034431 62 190 17.4 26.9 0.00 0.00 0.00 83 1011.1
20260506034131 62 159 16.5 26.9 0.00 0.00 0.00 83 1011.0
20260506033343 62 174 15.6 26.1 0.00 0.00 0.00 83 1011.0
20260506032817 62 202 14.8 24.3 0.00 0.00 0.00 83 1011.0
20260506032315 62 202 14.8 23.5 0.00 0.00 0.00 83 1011.1
20260506031811 62 211 14.8 24.3 0.00 0.00 0.00 83 1011.1
20260506031312 62 138 15.6 24.3 0.00 0.00 0.00 83 1011.1
20260506030754 62 207 16.5 24.3 0.00 0.00 0.00 83 1011.1
20260506030450 62 199 15.6 24.3 0.00 0.00 0.00 83 1011.1
20260506025707 62 205 15.6 24.3 0.00 0.00 0.00 82 1011.1
20260506025415 62 182 16.5 26.9 0.00 0.00 0.00 82 1011.2
20260506024634 62 182 16.5 26.9 0.00 0.00 0.00 81 1011.2
20260506024111 62 157 17.4 27.8 0.00 0.00 0.00 81 1011.2
20260506023610 62 197 17.4 27.8 0.00 0.00 0.00 81 1011.2
20260506023041 63 170 16.5 26.9 0.00 0.00 0.00 81 1011.2
20260506022511 63 205 14.8 23.5 0.00 0.00 0.00 81 1011.2
20260506021959 63 197 15.6 26.1 0.00 0.00 0.00 81 1011.2
20260506021502 63 219 17.4 28.7 0.00 0.00 0.00 81 1011.2
20260506020953 63 188 17.4 29.5 0.00 0.00 0.00 81 1011.2
20260506020454 63 192 16.5 29.5 0.00 0.00 0.00 81 1011.2
20260506015941 63 162 15.6 26.1 0.00 0.00 0.00 82 1011.2
20260506015443 63 163 15.6 22.6 0.00 0.00 0.00 82 1011.2
20260506014922 63 171 16.5 23.5 0.00 0.00 0.00 82 1011.2
20260506014417 63 197 15.6 23.5 0.00 0.00 0.00 81 1011.2
20260506013920 63 163 15.6 24.3 0.00 0.00 0.00 81 1011.1
20260506013349 63 186 16.5 28.7 0.00 0.00 0.00 81 1011.1
20260506013102 63 204 16.5 28.7 0.00 0.00 0.00 81 1011.1
20260506012343 63 188 15.6 26.1 0.00 0.00 0.00 81 1011.1
20260506011813 63 188 14.8 25.2 0.00 0.00 0.00 81 1011.1
20260506011312 64 169 14.8 25.2 0.00 0.00 0.00 80 1011.1
20260506010813 64 213 15.6 23.5 0.00 0.00 0.00 80 1010.8
20260506010309 64 186 15.6 24.3 0.00 0.00 0.00 81 1010.8
20260506005808 64 164 15.6 24.3 0.00 0.00 0.00 80 1010.8
20260506005256 64 190 16.5 28.7 0.00 0.00 0.00 80 1010.6
20260506004747 64 184 18.2 28.7 0.00 0.00 0.00 80 1010.6
20260506004247 64 200 17.4 27.8 0.00 0.00 0.00 79 1010.6
20260506003728 64 208 16.5 26.1 0.00 0.00 0.00 79 1010.5
20260506003431 64 213 15.6 26.1 0.00 0.00 0.00 79 1010.5
20260506002910 64 188 14.8 25.2 0.00 0.00 0.00 78 1010.5
20260506002131 65 209 15.6 22.6 0.00 0.00 0.00 78 1010.4
20260506001613 65 200 16.5 25.2 0.00 0.00 0.00 77 1010.4
20260506001050 65 189 16.5 26.9 0.00 0.00 0.00 77 1010.4
20260506000551 65 166 16.5 27.8 0.00 0.00 0.00 77 1010.2
20260506000030 65 165 16.5 27.8 0.00 0.00 0.00 77 1010.2
20260505235507 64 187 17.4 27.8 0.00 0.00 0.00 78 1010.2
20260505235008 65 141 17.4 26.1 0.00 0.00 0.00 78 1010.1
20260505234442 64 201 16.5 24.3 0.00 0.00 0.00 78 1010.1
20260505233916 64 195 15.6 23.5 0.00 0.00 0.00 78 1009.9
20260505233349 65 172 14.8 24.3 0.00 0.00 0.00 77 1009.9
20260505232829 65 184 16.5 28.7 0.00 0.00 0.00 76 1009.9
20260505232331 66 198 20.0 30.4 0.00 0.00 0.00 74 1010.0
20260505231805 66 170 20.9 30.4 0.00 0.00 0.00 73 1010.0
20260505231523 67 204 20.9 29.5 0.00 0.00 0.00 73 1010.0
20260505230735 67 205 20.9 30.4 0.00 0.00 0.00 73 1009.7
20260505230230 67 207 20.0 29.5 0.00 0.00 0.00 72 1009.7
20260505225726 67 217 20.0 28.7 0.00 0.00 0.00 73 1009.7
20260505225157 67 208 19.1 31.3 0.00 0.00 0.00 73 1009.6
20260505224630 67 199 18.2 28.7 0.00 0.00 0.00 72 1009.6